Date String (YYYY-MM-DD hh:mm:ss) UTC,Instrument flags,Ambient pressure (hPa),Sample flow (lpm),Bypass flow (lpm),Sample temperature (°C),Ambient temperature (°C),ASC tube jacket temperature (°C),LED temperature (°C),Box temperature (°C),Sample RH (%),Span deviation,Mass concentration (μg/m³),Mass concentration (μg/m³),Mass concentration (μg/m³)
DateTimeUTC,F1_M11,P_M11,Q1_M11,Q2_M11,T1_M11,T2_M11,T3_M11,T4_M11,T5_M11,U1_M11,ZSPAN_M11,X0_M11,X2_M11,X1_M11
2023-04-29 15:00:00,,0833.4,5.01,0.00,24.4,23.2,00.0,32.7,26.0,15.5,0000.0,0012.77,0004.58,0002.22
2023-04-29 15:01:00,,0833.5,4.99,0.00,24.5,23.2,00.0,32.7,26.0,15.6,0000.0,0012.54,0004.53,0002.20
2023-04-29 15:02:00,,0833.5,4.99,0.00,24.5,23.3,00.0,32.7,26.0,15.4,0000.0,0013.04,0004.58,0002.20
2023-04-29 15:03:00,,0833.5,5.00,0.00,24.5,23.3,00.0,32.7,26.1,15.9,0000.0,0012.94,0004.53,0002.18
2023-04-29 15:04:00,,0833.5,5.01,0.00,24.5,23.3,00.0,32.7,26.1,15.5,0000.0,0012.66,0004.47,0002.16
2023-04-29 15:05:00,,0833.5,5.00,0.00,24.5,23.3,00.0,32.7,26.1,16.3,0000.0,0012.61,0004.46,0002.16
2023-04-29 15:06:00,,0833.5,5.01,0.00,24.5,23.4,00.0,32.7,26.2,17.2,0000.0,0012.68,0004.48,0002.15
2023-04-29 15:07:00,,0833.5,5.00,0.00,24.6,23.4,00.0,32.8,26.1,17.0,0000.0,0013.05,0004.50,0002.16
2023-04-29 15:08:00,,0833.4,4.99,0.00,24.6,23.4,00.0,32.8,26.2,17.1,0000.0,0013.13,0004.49,0002.18
2023-04-29 15:09:00,,0833.5,5.00,0.00,24.6,23.4,00.0,32.8,26.2,16.7,0000.0,0013.09,0004.50,0002.21
2023-04-29 15:10:00,,0833.4,5.00,0.00,24.6,23.4,00.0,32.8,26.3,16.0,0000.0,0012.86,0004.46,0002.20
2023-04-29 15:11:00,,0833.4,5.00,0.00,24.6,23.5,00.0,32.8,26.2,16.3,0000.0,0012.13,0004.34,0002.16
2023-04-29 15:12:00,,0833.4,5.00,0.00,24.7,23.5,00.0,32.9,26.2,16.4,0000.0,0012.42,0004.42,0002.18
2023-04-29 15:13:00,,0833.4,5.00,0.00,24.7,23.5,00.0,32.9,26.3,16.2,0000.0,0012.34,0004.47,0002.19
2023-04-29 15:14:00,,0833.5,5.00,0.00,24.7,23.5,00.0,32.9,26.3,16.6,0000.0,0012.18,0004.48,0002.17
2023-04-29 15:15:00,,0833.4,5.00,0.00,24.7,23.5,00.0,32.9,26.3,16.1,0000.0,0012.10,0004.45,0002.15
2023-04-29 15:16:00,,0833.4,5.01,0.00,24.7,23.5,00.0,32.9,26.3,16.2,0000.0,0011.95,0004.44,0002.16
2023-04-29 15:17:00,,0833.5,5.01,0.00,24.7,23.5,00.0,32.9,26.3,15.7,0000.0,0011.73,0004.44,0002.16
2023-04-29 15:18:00,,0833.5,4.99,0.00,24.7,23.5,00.0,32.9,26.3,14.9,0000.0,0011.33,0004.44,0002.15
2023-04-29 15:19:00,,0833.5,5.00,0.00,24.8,23.5,00.0,33.0,26.3,14.6,0000.0,0010.84,0004.38,0002.10
2023-04-29 15:20:00,,0833.5,5.01,0.00,24.8,23.6,00.0,33.0,26.4,14.7,0000.0,0011.16,0004.45,0002.09
2023-04-29 15:21:00,,0833.4,5.01,0.00,24.8,23.6,00.0,33.0,26.4,15.2,0000.0,0011.52,0004.57,0002.10
2023-04-29 15:22:00,,0833.4,4.99,0.00,24.8,23.6,00.0,33.0,26.4,15.4,0000.0,0011.82,0004.67,0002.11
2023-04-29 15:23:00,,0833.4,4.99,0.00,24.8,23.6,00.0,33.0,26.4,16.0,0000.0,0011.77,0004.67,0002.11
2023-04-29 15:24:00,,0833.4,5.00,0.00,24.9,23.6,00.0,33.0,26.4,16.7,0000.0,0011.25,0004.57,0002.09
2023-04-29 15:25:00,,0833.4,5.00,0.00,24.9,23.6,00.0,33.1,26.5,16.6,0000.0,0011.30,0004.58,0002.10
2023-04-29 15:26:00,,0833.4,5.00,0.00,24.9,23.7,00.0,33.1,26.5,16.0,0000.0,0011.35,0004.62,0002.13
2023-04-29 15:27:00,,0833.4,5.00,0.00,24.9,23.7,00.0,33.1,26.5,16.3,0000.0,0011.42,0004.64,0002.13
2023-04-29 15:28:00,,0833.4,5.00,0.00,24.9,23.7,00.0,33.1,26.5,16.2,0000.0,0011.38,0004.67,0002.15
2023-04-29 15:29:00,,0833.4,5.00,0.00,24.9,23.7,00.0,33.1,26.5,16.5,0000.0,0011.22,0004.68,0002.18
2023-04-29 15:30:00,,0833.4,5.00,0.00,24.9,23.7,00.0,33.1,26.6,16.1,0000.0,0011.57,0004.74,0002.22
2023-04-29 15:31:00,,0833.4,5.00,0.00,25.0,23.7,00.0,33.2,26.6,16.0,0000.0,0011.43,0004.61,0002.23
2023-04-29 15:32:00,,0833.4,5.00,0.00,25.0,23.8,00.0,33.2,26.6,14.8,0000.0,0011.59,0004.50,0002.23
2023-04-29 15:33:00,,0833.4,5.01,0.00,25.0,23.8,00.0,33.2,26.6,14.3,0000.0,0011.50,0004.45,0002.25
2023-04-29 15:34:00,,0833.4,5.00,0.00,25.0,23.8,00.0,33.2,26.6,14.8,0000.0,0011.62,0004.42,0002.26
2023-04-29 15:35:00,,0833.4,5.00,0.00,25.0,23.8,00.0,33.2,26.6,15.8,0000.0,0011.45,0004.40,0002.30
2023-04-29 15:36:00,,0833.4,4.99,0.00,25.0,23.8,00.0,33.2,26.6,15.8,0000.0,0011.54,0004.39,0002.33
2023-04-29 15:37:00,,0833.4,5.00,0.00,25.1,23.9,00.0,33.2,26.6,15.8,0000.0,0011.85,0004.45,0002.34
2023-04-29 15:38:00,,0833.4,5.00,0.00,25.1,23.9,00.0,33.3,26.7,15.7,0000.0,0011.84,0004.46,0002.35
2023-04-29 15:39:00,,0833.5,5.01,0.00,25.1,23.9,00.0,33.3,26.7,16.0,0000.0,0012.00,0004.41,0002.36
2023-04-29 15:40:00,,0833.5,5.00,0.00,25.1,23.9,00.0,33.3,26.7,16.4,0000.0,0012.23,0004.38,0002.37
2023-04-29 15:41:00,,0833.5,4.98,0.00,25.1,23.9,00.0,33.3,26.7,16.8,0000.0,0011.91,0004.36,0002.36
2023-04-29 15:42:00,,0833.5,5.01,0.00,25.2,24.0,00.0,33.3,26.7,16.5,0000.0,0012.04,0004.42,0002.37
2023-04-29 15:43:00,,0833.5,5.01,0.00,25.2,24.0,00.0,33.4,26.7,14.5,0000.0,0011.34,0004.41,0002.41
2023-04-29 15:44:00,,0833.5,4.99,0.00,25.2,24.0,00.0,33.4,26.8,15.6,0000.0,0011.59,0004.42,0002.42
2023-04-29 15:45:00,,0833.5,4.99,0.00,25.2,24.0,00.0,33.4,26.8,16.1,0000.0,0011.48,0004.42,0002.42
2023-04-29 15:46:00,,0833.5,5.01,0.00,25.2,24.0,00.0,33.4,26.8,15.8,0000.0,0011.68,0004.47,0002.44
2023-04-29 15:47:00,,0833.4,5.01,0.00,25.2,24.0,00.0,33.4,26.8,15.5,0000.0,0012.07,0004.49,0002.45
2023-04-29 15:48:00,,0833.5,5.01,0.00,25.2,24.0,00.0,33.4,26.8,15.4,0000.0,0012.04,0004.48,0002.46
2023-04-29 15:49:00,,0833.4,4.99,0.00,25.3,24.1,00.0,33.4,26.8,14.9,0000.0,0012.14,0004.47,0002.48
2023-04-29 15:50:00,,0833.4,5.00,0.00,25.3,24.1,00.0,33.5,26.8,15.6,0000.0,0011.97,0004.49,0002.51
2023-04-29 15:51:00,,0833.4,5.00,0.00,25.3,24.1,00.0,33.5,26.9,15.6,0000.0,0011.65,0004.54,0002.53
2023-04-29 15:52:00,,0833.4,5.00,0.00,25.3,24.1,00.0,33.5,26.9,15.7,0000.0,0012.11,0004.57,0002.58
2023-04-29 15:53:00,,0833.4,4.99,0.00,25.3,24.1,00.0,33.5,26.9,15.8,0000.0,0012.46,0004.58,0002.63
2023-04-29 15:54:00,,0833.4,5.01,0.00,25.3,24.1,00.0,33.5,26.9,15.5,0000.0,0012.72,0004.69,0002.66
2023-04-29 15:55:00,,0833.4,5.00,0.00,25.3,24.1,00.0,33.5,26.9,15.6,0000.0,0012.59,0004.76,0002.69
2023-04-29 15:56:00,,0833.4,5.00,0.00,25.4,24.2,00.0,33.6,26.9,15.7,0000.0,0012.28,0004.77,0002.76
2023-04-29 15:57:00,,0833.4,5.00,0.00,25.4,24.2,00.0,33.6,26.9,15.6,0000.0,0012.16,0004.78,0002.81
2023-04-29 15:58:00,,0833.4,5.01,0.00,25.4,24.2,00.0,33.6,27.0,15.8,0000.0,0012.01,0004.83,0002.86
2023-04-29 15:59:00,,0833.4,5.01,0.00,25.4,24.2,00.0,33.6,27.0,15.8,0000.0,0011.57,0004.82,0002.91
